Location: Newark
(15.4608°S, 41.1635°W)
Time: 04:16:17
(UTC+00:00)

Vanguard 1 Rocket - Visible Passes

Search period start: 04 August 2021 00:00
Search period end: 14 August 2021 00:00
Orbit: 650 x 4226 km, 34.3° (Epoch: 02 August)

Date Brightness Start Highest point End Pass type
(mag) Time Alt. Az. Time Alt. Az. Time Alt. Az.
04 Aug 10.3 05:11:22 55° SE 05:11:22 55° SE 05:35:17 10° ENE visible
04 Aug 10.5 07:28:41 28° WSW 07:43:48 78° NW 08:10:04 10° NE visible
04 Aug 8.2 22:51:55 10° W 22:55:23 42° WSW 22:55:23 42° WSW visible
05 Aug 10.9 04:04:17 31° ESE 04:04:17 31° ESE 04:16:34 10° E visible
05 Aug 10.0 06:21:35 56° SW 06:28:23 82° SE 06:55:11 10° ENE visible
05 Aug 11.0 08:39:58 10° WSW 09:01:41 49° NW 09:25:10 10° NNE visible
05 Aug 6.8 21:41:09 10° NW 21:45:32 81° NE 21:48:21 29° ESE visible
06 Aug 11.6 02:57:13 10° ESE 02:57:13 10° ESE 02:57:20 10° ESE visible
06 Aug 10.1 05:14:31 63° SE 05:14:31 63° SE 05:38:34 10° ENE visible
06 Aug 10.5 07:31:49 28° WSW 07:46:11 67° NW 08:12:10 10° NE visible
06 Aug 8.6 22:55:31 10° W 22:58:36 30° SW 22:58:36 30° SW visible
07 Aug 10.8 04:07:28 34° ESE 04:07:28 34° ESE 04:20:19 10° E visible
07 Aug 9.9 06:24:46 59° WSW 06:30:54 87° NW 06:57:39 10° NE visible
07 Aug 11.0 08:43:40 10° W 09:04:11 40° NW 09:26:42 10° NNE visible
07 Aug 7.2 21:44:17 10° WNW 21:48:38 61° SSW 21:51:33 26° SE visible
08 Aug 11.6 03:00:26 11° ESE 03:00:26 11° ESE 03:01:15 10° E visible
08 Aug 10.0 05:17:44 71° ESE 05:17:44 71° ESE 05:41:32 10° ENE visible
08 Aug 10.5 07:35:03 27° W 07:48:39 56° NW 08:14:00 10° NE visible
08 Aug 9.1 22:59:20 10° WSW 23:01:47 21° SW 23:01:47 21° SW visible
09 Aug 10.8 04:10:43 36° E 04:10:43 36° E 04:23:51 10° ENE visible
09 Aug 9.9 06:28:01 59° W 06:33:26 75° NW 06:59:50 10° NE visible
09 Aug 7.9 21:47:44 10° W 21:51:51 38° SSW 21:54:42 21° SSE visible
10 Aug 11.5 03:03:42 12° E 03:03:42 12° E 03:05:09 10° E visible
10 Aug 10.0 05:21:01 76° E 05:21:01 76° E 05:44:11 10° ENE visible
10 Aug 10.5 07:38:19 25° W 07:51:15 46° NW 08:15:33 10° NNE visible
10 Aug 9.4 23:03:21 10° SW 23:04:54 16° SW 23:04:54 16° SW visible
11 Aug 10.7 04:14:00 38° E 04:14:00 38° E 04:27:05 10° ENE visible
11 Aug 10.0 06:31:18 55° W 06:36:02 63° NW 07:01:44 10° NE visible
11 Aug 8.5 21:51:28 10° WSW 21:55:11 25° SSW 21:57:48 17° SSE visible
12 Aug 11.5 03:06:59 13° E 03:06:59 13° E 03:08:55 10° E visible
12 Aug 10.0 05:24:17 73° NNE 05:24:17 73° NNE 05:46:31 10° NE visible
12 Aug 10.7 07:41:36 22° W 07:54:05 37° NW 08:16:50 10° NNE visible
12 Aug 9.7 23:07:31 10° SW 23:07:58 11° SSW 23:07:58 11° SSW visible
13 Aug 10.7 04:17:16 39° ENE 04:17:16 39° ENE 04:29:59 10° ENE visible
13 Aug 10.1 06:34:33 47° WNW 06:38:46 52° NW 07:03:20 10° NE visible
13 Aug 8.9 21:55:30 10° WSW 21:58:35 18° SSW 22:00:51 14° SSE visible
